Milford, UT

1:11 PM MST on February 08, 2016 (GMT -0700)
Milford Municipal

Weather History for KMLF - October, 2011

Change the Weather History Date:

Saturday, October 8, 2011

  Actual Average Record
Temperature  
Mean Temperature 46 °F -  
Max Temperature 53 °F 70 °F 82 °F (1996)
Min Temperature 39 °F 34 °F 26 °F (2007)
Degree Days  
Heating Degree Days 20    
Moisture  
Dew Point 37 °F    
Average Humidity 78    
Maximum Humidity 93    
Minimum Humidity 54    
Precipitation  
Precipitation 0.00 in - - ()
Sea Level Pressure  
Sea Level Pressure 30.13 in    
Wind  
Wind Speed 5 mph (North)    
Max Wind Speed 14 mph    
Max Gust Speed 21 mph    
Visibility 10 miles    
Events Rain    
Averages and records for this station are not official NWS values.
T = Trace of Precipitation, MM = Missing Value Source: NWS Daily Summary

Daily Weather History Graph

Daily Weather History Graph

Search for Another Location

Airport or City:

Trip Planner

Search our weather history database for the weather conditions in past years. The results will help you decide how hot, cold, wet, or windy it might be!

Date:

Astronomy

Oct. 08, 2011 Rise Set
Actual Time 7:34 AM MDT 7:04 PM MDT
Civil Twilight 7:07 AM MDT 7:30 PM MDT
Nautical Twilight 6:36 AM MDT 8:01 PM MDT
Astronomical Twilight 6:06 AM MDT 8:32 PM MDT
Moon 5:15 PM MDT 4:27 AM MDT
Length of Visible Light 12h 23m
Length of Day
11h 30m
Waxing Gibbous, 90% of the Moon is Illuminated
Oct 8
Waxing Gibbous
Oct 11
Full
Oct 19
Last Quarter
Oct 26
New
Nov 2
First Quarter

Hourly Weather History & Observations

Time (MDT) Temp. Windchill Dew Point Humidity Pressure Visibility Wind Dir Wind Speed Gust Speed Precip Events Conditions
12:52 AM 42.1 °F 40.2 °F 36.0 °F 79% 30.06 in 10.0 mi North 3.5 mph - 0.00 in Rain Light Rain
1:52 AM 41.0 °F 39.0 °F 37.0 °F 86% 30.05 in 10.0 mi NNW 3.5 mph - 0.00 in   Overcast
2:52 AM 41.0 °F 37.1 °F 37.0 °F 86% 30.05 in 10.0 mi NNW 5.8 mph - N/A   Overcast
3:52 AM 41.0 °F 39.0 °F 37.9 °F 89% 30.06 in 9.0 mi NNW 3.5 mph - 0.00 in Rain Light Rain
4:52 AM 41.0 °F - 37.9 °F 89% 30.07 in 10.0 mi Calm Calm - 0.00 in   Overcast
5:52 AM 41.0 °F - 37.9 °F 89% 30.07 in 10.0 mi Calm Calm - 0.00 in   Overcast
6:52 AM 41.0 °F - 37.9 °F 89% 30.08 in 10.0 mi Calm Calm - N/A   Overcast
7:52 AM 39.0 °F - 37.0 °F 93% 30.11 in 10.0 mi Calm Calm - N/A   Partly Cloudy
8:52 AM 39.0 °F - 37.0 °F 93% 30.14 in 10.0 mi Calm Calm - N/A   Clear
9:52 AM 43.0 °F 40.3 °F 39.0 °F 86% 30.14 in 10.0 mi NE 4.6 mph - N/A   Overcast
10:10 AM 44.6 °F 42.2 °F 37.4 °F 76% 30.18 in 10.0 mi NE 4.6 mph - N/A   Overcast
10:21 AM 44.6 °F 43.1 °F 37.4 °F 76% 30.18 in 10.0 mi ENE 3.5 mph - N/A   Overcast
10:52 AM 44.1 °F 40.8 °F 39.0 °F 82% 30.15 in 10.0 mi NE 5.8 mph - N/A   Overcast
11:52 AM 46.0 °F 41.9 °F 37.9 °F 73% 30.16 in 10.0 mi ENE 8.1 mph - N/A   Overcast
12:13 PM 46.4 °F 42.9 °F 37.4 °F 71% 30.20 in 10.0 mi NNE 6.9 mph - N/A   Overcast
12:52 PM 46.9 °F - 37.9 °F 71% 30.14 in 10.0 mi NE 9.2 mph - N/A   Overcast
1:52 PM 46.9 °F - 37.9 °F 71% 30.14 in 10.0 mi North 9.2 mph - N/A   Overcast
2:14 PM 48.2 °F - 37.4 °F 66% 30.17 in 10.0 mi NNE 13.8 mph 20.7 mph N/A   Overcast
2:52 PM 52.0 °F - 36.0 °F 54% 30.10 in 10.0 mi NNE 12.7 mph - N/A   Scattered Clouds
3:52 PM 48.0 °F - 39.0 °F 71% 30.12 in 10.0 mi North 11.5 mph - 0.00 in   Overcast
4:52 PM 50.0 °F - 36.0 °F 59% 30.12 in 10.0 mi NNE 10.4 mph - N/A   Overcast
5:52 PM 48.9 °F - 37.0 °F 64% 30.12 in 10.0 mi North 8.1 mph - N/A   Overcast
6:52 PM 48.9 °F - 37.0 °F 64% 30.14 in 10.0 mi North 9.2 mph - N/A   Overcast
7:52 PM 46.9 °F - 37.9 °F 71% 30.17 in 10.0 mi North 8.1 mph - N/A   Overcast
8:52 PM 46.0 °F 41.9 °F 39.0 °F 76% 30.19 in 10.0 mi NNW 8.1 mph - N/A   Overcast
9:52 PM 45.0 °F 40.1 °F 37.9 °F 76% 30.19 in 10.0 mi NNW 9.2 mph - N/A   Mostly Cloudy
10:52 PM 42.1 °F 36.6 °F 37.0 °F 82% 30.19 in 10.0 mi NNW 9.2 mph - N/A   Clear
11:52 PM 39.0 °F 35.7 °F 36.0 °F 89% 30.19 in 10.0 mi NE 4.6 mph - N/A   Clear